TimeEDT,TemperatureF,Dew PointF,Humidity,Sea Level PressureIn,VisibilityMPH,Wind Direction,Wind SpeedMPH,Gust SpeedMPH,PrecipitationIn,Events,Conditions,WindDirDegrees,DateUTC
12:53 AM,63.0,60.1,90,29.86,10.0,NNW,6.9,-,N/A,,Overcast,330,2013-09-13 04:53:00
1:53 AM,57.9,55.0,90,29.87,7.0,NNW,6.9,-,0.04,Rain,Light Rain,340,2013-09-13 05:53:00
2:53 AM,57.0,55.0,93,29.86,5.0,North,5.8,-,0.04,,Overcast,350,2013-09-13 06:53:00
3:53 AM,57.0,55.9,96,29.83,10.0,Calm,Calm,-,N/A,,Overcast,0,2013-09-13 07:53:00
4:53 AM,57.0,55.0,93,29.84,10.0,NNW,8.1,-,N/A,,Mostly Cloudy,330,2013-09-13 08:53:00
5:21 AM,57.2,55.4,94,29.85,9.0,WNW,3.5,-,N/A,,Overcast,300,2013-09-13 09:21:00
5:34 AM,57.2,55.4,94,29.85,7.0,WNW,3.5,-,N/A,,Overcast,300,2013-09-13 09:34:00
5:53 AM,57.0,55.9,96,29.86,5.0,NW,4.6,-,N/A,,Overcast,320,2013-09-13 09:53:00
6:53 AM,57.0,55.9,96,29.87,6.0,NW,4.6,-,N/A,,Overcast,310,2013-09-13 10:53:00
7:53 AM,57.0,55.9,96,29.89,10.0,Variable,3.5,-,N/A,,Overcast,0,2013-09-13 11:53:00
7:57 AM,57.2,55.4,94,29.89,9.0,WNW,6.9,-,N/A,,Overcast,300,2013-09-13 11:57:00
8:07 AM,57.2,55.4,94,29.89,10.0,WNW,9.2,-,N/A,,Mostly Cloudy,290,2013-09-13 12:07:00
8:53 AM,57.9,55.0,90,29.90,10.0,NW,5.8,-,N/A,,Mostly Cloudy,310,2013-09-13 12:53:00
9:40 AM,59.0,55.4,88,29.90,10.0,WNW,8.1,-,N/A,,Overcast,300,2013-09-13 13:40:00
9:53 AM,59.0,55.0,87,29.90,10.0,NNW,5.8,-,N/A,,Mostly Cloudy,340,2013-09-13 13:53:00
10:00 AM,59.0,55.4,88,29.89,10.0,NNW,8.1,-,N/A,,Mostly Cloudy,330,2013-09-13 14:00:00
10:53 AM,61.0,53.1,75,29.91,10.0,NW,8.1,18.4,N/A,,Mostly Cloudy,320,2013-09-13 14:53:00
11:00 AM,62.6,53.6,72,29.90,10.0,NNW,9.2,16.1,N/A,,Mostly Cloudy,330,2013-09-13 15:00:00
11:53 AM,64.0,53.1,67,29.90,10.0,WNW,8.1,-,N/A,,Mostly Cloudy,300,2013-09-13 15:53:00
12:53 PM,66.0,51.1,59,29.89,10.0,NW,10.4,21.9,N/A,,Mostly Cloudy,310,2013-09-13 16:53:00
1:53 PM,57.0,54.0,89,29.93,10.0,NNW,10.4,20.7,0.02,,Mostly Cloudy,340,2013-09-13 17:53:00
2:53 PM,59.0,51.1,75,29.93,10.0,NW,9.2,19.6,0.00,,Overcast,320,2013-09-13 18:53:00
3:53 PM,59.0,48.9,69,29.93,10.0,NNW,9.2,-,0.00,,Overcast,330,2013-09-13 19:53:00
4:53 PM,60.1,46.0,60,29.95,10.0,NNW,15.0,24.2,N/A,,Overcast,330,2013-09-13 20:53:00
5:53 PM,59.0,45.0,60,29.96,10.0,NW,9.2,-,N/A,,Mostly Cloudy,320,2013-09-13 21:53:00
6:53 PM,57.0,45.0,64,29.98,10.0,NNW,9.2,19.6,N/A,,Mostly Cloudy,330,2013-09-13 22:53:00
7:53 PM,55.0,45.0,69,30.00,10.0,NW,8.1,-,0.00,,Mostly Cloudy,320,2013-09-13 23:53:00
8:53 PM,53.1,44.1,71,30.02,10.0,NNW,9.2,-,N/A,,Scattered Clouds,330,2013-09-14 00:53:00
9:53 PM,53.1,44.1,71,30.03,10.0,NNW,8.1,-,N/A,,Overcast,330,2013-09-14 01:53:00
10:53 PM,53.1,44.1,71,30.04,10.0,NNW,9.2,-,N/A,,Overcast,340,2013-09-14 02:53:00
11:53 PM,52.0,46.0,80,30.04,10.0,NNW,3.5,-,N/A,,Overcast,340,2013-09-14 03:53:00